SCOUT X-4 R/B, 1358

Orbit data source: Space-Track

SCOUT X-4 R/B, 1358 is space debris in LEO originally from a launch on Thu, 29 Apr 1965 UTC launched from the Wallops Island (WLPIS). Debris objects in space refer to the collection of defunct objects orbiting the Earth. Examples of debris include non-operational satellites, rocket bodies, and fragments generated from explosions, collisions, or faulty payload assembly.

Loading next visibility...
Identifier
1358, 1965-032B
Orbit
LEO
Country
Flag of USUS
Related business
Manufacturer
ABL
Mission
Spacecraft
Bus & Motor
ALTAIR, Unknown motor
Mass
33 kg wet, 33 kg dry
Launch date (UTC)
1965-04-29 (61 years ago)
Launch vehicle
Unknown
Launch site
Wallops Island (WLPIS)
Object type
Payload
Rocket body
Debris
Shape & HBR
Unknown
Radar Cross Section
Medium (>0.1 m² and <1 m²)

Expand to show TLE details & history
Last TLE update: 1 day ago

TLE from 1 day ago
0 SCOUT X-4 R/B
1 01358U 65032B   26037.05798212 -.00000033  00000-0  71493-4 0  9990
2 01358  41.1906 268.3033 0244806 262.5617  94.7261 13.38238602970100
Epoch: 2026-02-06T01:23Z
TLE epoch observation values (Epoch: 2026-02-06T01:23:29.655Z)
Latitude
0.00005°
Longitude
111.22848°
Altitude
1,135.016 km
Speed
7.277 km/s
True Right ascension
17h 53m 12s
True Declination
0° 00' 00"
Sunlit
Object was in daylight at epoch
Visualization orbit readout
Latitude
Unknown
Longitude
Unknown
Altitude
Unknown
Speed
Unknown
Apparent Right ascension
Unknown
Apparent Declination
Unknown
Sunlit
N/A
Visualization observer readout
Local Sidereal Time
04:56:33
Azimuth
Unknown
Elevation
Unknown
Doppler factor
Unknown
Orbital elements
Apogee altitude
1,301.416 km
Perigee altitude
934.401 km
Semi-major axis
7,496.045 km
Eccentricity
0.02448
Inclination
41.1906°
RAAN
268.3033°
Arg. of periapsis
262.5617°
True anomaly
97.5137°
Mean anomaly
94.7261°
Eccentric anomaly
96.12074°
Mean motion
3.34422 °/min
Orbital period
107.65 mins
BSTAR
0.000071493
Loading maneuver chart data...
Computing Atmospheric mass density...
Loading historical data...
Loading historical data...
Loading historical data...
Loading historical data...
Loading historical data...
Loading historical data...
Loading historical data...
Other satellites on launch #32 in the year 1965 (1965-04-29 UTC)

Documentation

Showing up to 5 results
|